Tracking 19920 objects as of 14-Oct-2019
HD Live streaming from Space Station
objects crossing your sky now

SL-8 DEB

Track SL-8 DEB now!
10-day predictions


NORAD ID: 21861
Int'l Code: 1991-009CA
Perigee: 1,471.3 km
Apogee: 1,686.9 km
Inclination: 74.0 °
Period: 117.6 minutes
Semi major axis: 7950 km
RCS: 0.0407 m2 (small)
Launch date: February 12, 1991
Source: Commonwealth of Independent States (former USSR) (CIS)
Launch site: PLESETSK MISSILE AND SPACE COMPLEX (PKMTR)

Note: This is SATELLITE DEBRIS
aabbcc
Your satellite tracking list
Your tracking list is empty




NASA's NSSDC Master Catalog

Two Line Element Set (TLE):
1 21861U 91009CA  19286.01574771  .00000039  00000-0  47051-3 0  9997
2 21861  74.0227 253.0831 0135586  42.5043  31.4664 12.24732653278309
Source of the keplerian elements: AFSPC